GW5799 Weather Reports


time (UTC)temp
C
wind
direction
speed
KPH
gust
KPH
rain 1hr
cm
rain 24hr
cm
rain mn
cm
humidity
%
barometer
mb
20260505225925 13 96 12.9 20.9 0.00 0.00 0.00 77 1030.7
20260505225422 13 98 14.5 22.5 0.00 0.00 0.00 77 1030.6
20260505224917 13 91 12.9 19.3 0.00 0.00 0.00 77 1030.5
20260505224415 13 88 11.3 24.1 0.00 0.00 0.00 77 1030.5
20260505223912 13 97 14.5 22.5 0.00 0.00 0.00 77 1030.5
20260505223409 12 104 8.0 24.1 0.00 0.00 0.00 78 1030.6
20260505222905 12 108 17.7 20.9 0.00 0.00 0.00 78 1030.5
20260505222401 12 100 16.1 24.1 0.00 0.00 0.00 78 1030.4
20260505221858 12 99 14.5 20.9 0.00 0.00 0.00 79 1030.5
20260505221355 12 112 16.1 17.7 0.00 0.00 0.00 79 1030.4
20260505220852 12 114 9.7 17.7 0.00 0.00 0.00 78 1030.2
20260505220349 12 124 11.3 20.9 0.00 0.00 0.00 78 1030.3
20260505215847 12 125 14.5 17.7 0.00 0.00 0.00 77 1030.2
20260505215345 13 117 11.3 16.1 0.00 0.00 0.00 77 1030.3
20260505214842 13 100 11.3 22.5 0.00 0.00 0.00 76 1030.2
20260505214340 13 105 12.9 19.3 0.00 0.00 0.00 77 1030.3
20260505213837 13 107 11.3 22.5 0.00 0.00 0.00 77 1030.2
20260505213335 13 101 16.1 22.5 0.00 0.00 0.00 77 1029.9
20260505212830 13 100 12.9 20.9 0.00 0.00 0.00 76 1030.0
20260505212328 13 124 16.1 24.1 0.00 0.00 0.00 77 1029.9
20260505211823 13 111 16.1 20.9 0.00 0.00 0.00 76 1029.9
20260505211322 13 91 16.1 20.9 0.00 0.00 0.00 77 1029.8
20260505210818 13 102 11.3 19.3 0.00 0.00 0.00 76 1030.0
20260505210315 13 89 11.3 17.7 0.00 0.00 0.00 76 1029.9
20260505205812 13 112 16.1 24.1 0.00 0.00 0.00 76 1029.8
20260505205310 13 103 14.5 22.5 0.00 0.00 0.00 76 1030.0
20260505204806 13 84 11.3 22.5 0.00 0.00 0.00 76 1029.9
20260505204304 13 91 12.9 24.1 0.00 0.00 0.00 76 1029.9
20260505203801 13 97 14.5 24.1 0.00 0.00 0.00 76 1029.8
20260505203258 13 92 11.3 22.5 0.00 0.00 0.00 76 1029.7
20260505202754 13 89 11.3 20.9 0.00 0.00 0.00 76 1029.8
20260505202250 13 87 12.9 19.3 0.00 0.00 0.00 76 1029.7
20260505201747 13 84 12.9 24.1 0.00 0.00 0.00 76 1029.4
20260505201244 13 88 14.5 22.5 0.00 0.00 0.00 75 1029.6
20260505200743 13 83 17.7 19.3 0.00 0.00 0.00 76 1029.7
20260505200240 13 89 11.3 20.9 0.00 0.00 0.00 76 1029.8
20260505195735 13 101 11.3 19.3 0.00 0.00 0.00 76 1029.6
20260505195233 12 114 12.9 16.1 0.00 0.00 0.00 76 1029.8
20260505194730 12 102 8.0 16.1 0.00 0.00 0.00 75 1029.7
20260505194226 12 100 11.3 12.9 0.00 0.00 0.00 75 1029.7
20260505193722 12 102 4.8 11.3 0.00 0.00 0.00 75 1029.7
20260505193219 12 98 6.4 12.9 0.00 0.00 0.00 75 1029.7
20260505192718 12 119 12.9 16.1 0.00 0.00 0.00 75 1029.7
20260505192215 12 93 9.7 16.1 0.00 0.00 0.00 75 1029.7
20260505191713 12 94 9.7 16.1 0.00 0.00 0.00 75 1029.5
20260505191211 12 110 11.3 12.9 0.00 0.00 0.00 74 1029.6
20260505190707 12 123 11.3 12.9 0.00 0.00 0.00 74 1029.8
20260505190207 12 109 8.0 16.1 0.00 0.00 0.00 74 1029.8
20260505185704 12 109 8.0 11.3 0.00 0.00 0.00 73 1029.8
20260505185200 12 123 12.9 16.1 0.00 0.00 0.00 73 1029.6
20260505184656 12 111 12.9 12.9 0.00 0.00 0.00 73 1029.7
20260505184154 12 125 11.3 14.5 0.00 0.00 0.00 73 1029.6
20260505183651 12 108 8.0 12.9 0.00 0.00 0.00 72 1029.5
20260505183148 13 106 14.5 17.7 0.00 0.00 0.00 72 1029.5
20260505182645 12 118 12.9 16.1 0.00 0.00 0.00 72 1029.8
20260505182142 12 117 11.3 14.5 0.00 0.00 0.00 72 1029.8
20260505181638 12 119 8.0 14.5 0.00 0.00 0.00 72 1029.7
20260505181136 12 132 11.3 14.5 0.00 0.00 0.00 72 1029.6
20260505180631 12 118 12.9 14.5 0.00 0.00 0.00 72 1029.7
20260505180129 13 115 9.7 14.5 0.00 0.00 0.00 71 1029.7
20260505175625 13 126 9.7 11.3 0.00 0.00 0.00 71 1029.6
20260505175121 13 116 11.3 16.1 0.00 0.00 0.00 71 1029.5
20260505174618 13 115 12.9 14.5 0.00 0.00 0.00 70 1029.6
20260505174114 13 104 8.0 14.5 0.00 0.00 0.00 70 1029.5
20260505173611 13 114 12.9 16.1 0.00 0.00 0.00 69 1029.5
20260505173108 13 117 12.9 17.7 0.00 0.00 0.00 69 1029.2
20260505172605 13 127 14.5 14.5 0.00 0.00 0.00 70 1029.3
20260505172102 13 129 14.5 16.1 0.00 0.00 0.00 70 1029.4
20260505171556 13 128 9.7 12.9 0.00 0.00 0.00 70 1029.4
20260505171054 13 116 9.7 12.9 0.00 0.00 0.00 70 1029.3
20260505170550 13 110 8.0 16.1 0.00 0.00 0.00 70 1029.3
20260505170047 13 113 9.7 16.1 0.00 0.00 0.00 69 1029.3
20260505165542 13 118 9.7 14.5 0.00 0.00 0.00 69 1029.3
20260505165038 13 116 14.5 19.3 0.00 0.00 0.00 69 1029.5
20260505164534 13 122 8.0 16.1 0.00 0.00 0.00 69 1029.6
20260505164032 13 130 8.0 12.9 0.00 0.00 0.00 69 1029.4
20260505163531 13 127 8.0 16.1 0.00 0.00 0.00 69 1029.3
20260505163027 13 123 12.9 14.5 0.00 0.00 0.00 70 1029.3
20260505162520 13 137 9.7 14.5 0.00 0.00 0.00 70 1029.2
20260505162017 13 122 11.3 14.5 0.00 0.00 0.00 70 1029.1
20260505161514 13 129 8.0 12.9 0.00 0.00 0.00 70 1029.3
20260505161011 13 122 6.4 11.3 0.00 0.00 0.00 70 1029.1
20260505160509 13 134 9.7 14.5 0.00 0.00 0.00 71 1029.2
20260505152945 13 138 9.7 12.9 0.00 0.00 0.00 72 1029.1
20260505152443 13 140 11.3 14.5 0.00 0.00 0.00 71 1029.2
20260505151943 14 138 9.7 14.5 0.00 0.00 0.00 70 1029.0
20260505151439 15 144 11.3 14.5 0.00 0.00 0.00 70 1029.0
20260505150937 14 131 8.0 14.5 0.00 0.00 0.00 70 1029.1
20260505150433 14 133 9.7 14.5 0.00 0.00 0.00 72 1028.8
20260505140403 13 128 8.0 11.3 0.00 0.00 0.00 78 1029.2
20260505124817 14 135 4.8 8.0 0.00 0.00 0.00 78 1029.0
20260505124314 14 125 4.8 6.4 0.00 0.00 0.00 78 1029.0
20260505123810 14 133 3.2 6.4 0.00 0.00 0.00 78 1029.0
20260505123307 14 143 4.8 6.4 0.00 0.00 0.00 77 1029.1
20260505122802 14 134 6.4 8.0 0.00 0.00 0.00 78 1028.9
20260505122300 14 145 6.4 9.7 0.00 0.00 0.00 78 1029.0
20260505121756 14 148 8.0 8.0 0.00 0.00 0.00 78 1028.8
20260505121253 14 143 6.4 6.4 0.00 0.00 0.00 77 1028.7
20260505120750 14 148 4.8 6.4 0.00 0.00 0.00 77 1028.9
20260505120246 15 159 3.2 6.4 0.00 0.00 0.00 76 1028.7
20260505115745 15 151 6.4 6.4 0.00 0.00 0.00 76 1028.7
20260505115242 15 154 3.2 6.4 0.00 0.00 0.00 75 1028.8
20260505114739 15 157 3.2 6.4 0.00 0.00 0.00 75 1028.8
20260505114235 15 152 4.8 8.0 0.00 0.00 0.00 75 1028.6
20260505113732 15 146 4.8 8.0 0.00 0.00 0.00 74 1028.6
20260505113229 15 150 8.0 8.0 0.00 0.00 0.00 74 1028.5
20260505112725 15 145 6.4 8.0 0.00 0.00 0.00 74 1028.6
20260505112223 15 149 4.8 8.0 0.00 0.00 0.00 73 1028.6
20260505111723 15 150 4.8 8.0 0.00 0.00 0.00 73 1028.6
20260505111219 15 154 3.2 6.4 0.00 0.00 0.00 73 1028.6
20260505110715 15 159 4.8 8.0 0.00 0.00 0.00 72 1028.6
20260505110213 15 143 6.4 9.7 0.00 0.00 0.00 72 1028.4
20260505102148 16 146 4.8 4.8 0.00 0.00 0.00 73 1028.1
20260505101647 16 141 3.2 3.2 0.00 0.00 0.00 73 1028.1
20260505101143 16 160 1.6 3.2 0.00 0.00 0.00 72 1028.1
20260505100639 16 193 4.8 4.8 0.00 0.00 0.00 72 1028.0
20260505100136 16 202 3.2 6.4 0.00 0.00 0.00 72 1028.0
20260505095632 17 197 6.4 8.0 0.00 0.00 0.00 71 1027.9
20260505095129 17 204 6.4 8.0 0.00 0.00 0.00 71 1027.9
20260505094625 17 193 6.4 11.3 0.00 0.00 0.00 71 1027.9
20260505094122 17 205 9.7 9.7 0.00 0.00 0.00 71 1027.7
20260505093618 17 204 8.0 9.7 0.00 0.00 0.00 71 1027.8
20260505093115 17 209 8.0 12.9 0.00 0.00 0.00 70 1027.8
20260505092612 17 203 8.0 14.5 0.00 0.00 0.00 70 1027.9
20260505092111 18 200 9.7 17.7 0.00 0.00 0.00 70 1027.8
20260505091607 18 210 9.7 16.1 0.00 0.00 0.00 70 1027.9
20260505091106 18 201 8.0 16.1 0.00 0.00 0.00 69 1027.7
20260505090603 18 205 11.3 17.7 0.00 0.00 0.00 68 1027.7
20260505090101 18 207 9.7 17.7 0.00 0.00 0.00 67 1027.8
20260505085558 18 213 12.9 22.5 0.00 0.00 0.00 67 1027.9
20260505085057 18 213 17.7 22.5 0.00 0.00 0.00 66 1027.7
20260505084554 19 205 14.5 20.9 0.00 0.00 0.00 66 1027.7
20260505084052 19 214 19.3 22.5 0.00 0.00 0.00 65 1027.8
20260505083549 19 207 20.9 22.5 0.00 0.00 0.00 64 1027.5
20260505083046 19 205 16.1 20.9 0.00 0.00 0.00 64 1027.7
20260505082541 20 220 12.9 22.5 0.00 0.00 0.00 64 1027.6
20260505082039 19 220 16.1 24.1 0.00 0.00 0.00 64 1027.6
20260505081535 20 215 14.5 22.5 0.00 0.00 0.00 64 1027.5
20260505081032 20 203 22.5 24.1 0.00 0.00 0.00 63 1027.6
20260505080528 20 211 17.7 20.9 0.00 0.00 0.00 64 1027.6
20260505080025 20 216 19.3 22.5 0.00 0.00 0.00 63 1027.7
20260505075521 20 210 17.7 24.1 0.00 0.00 0.00 64 1027.7
20260505075018 20 207 16.1 22.5 0.00 0.00 0.00 64 1027.6
20260505074515 20 198 12.9 22.5 0.00 0.00 0.00 64 1027.6
20260505074012 20 205 19.3 24.1 0.00 0.00 0.00 63 1027.7
20260505073510 20 230 14.5 25.7 0.00 0.00 0.00 62 1027.8
20260505073008 20 213 20.9 25.7 0.00 0.00 0.00 61 1027.6
20260505072503 20 213 17.7 22.5 0.00 0.00 0.00 62 1027.7
20260505071959 20 208 17.7 25.7 0.00 0.00 0.00 61 1027.7
20260505071455 20 223 12.9 25.7 0.00 0.00 0.00 61 1027.7
20260505070953 20 210 14.5 25.7 0.00 0.00 0.00 60 1027.8
20260505070450 20 215 20.9 25.7 0.00 0.00 0.00 60 1027.6
20260505065946 20 208 20.9 24.1 0.00 0.00 0.00 61 1027.8
20260505065442 20 225 14.5 27.4 0.00 0.00 0.00 60 1027.8
20260505064939 20 225 12.9 27.4 0.00 0.00 0.00 60 1027.5
20260505064436 20 225 20.9 24.1 0.00 0.00 0.00 58 1027.4
20260505063934 20 223 22.5 22.5 0.00 0.00 0.00 59 1027.5
20260505063430 21 211 14.5 24.1 0.00 0.00 0.00 58 1027.5
20260505062927 21 219 17.7 19.3 0.00 0.00 0.00 59 1027.6
20260505062425 21 209 12.9 24.1 0.00 0.00 0.00 59 1027.4
20260505061921 21 234 14.5 24.1 0.00 0.00 0.00 58 1027.6
20260505061419 21 218 19.3 19.3 0.00 0.00 0.00 57 1027.4
20260505060916 21 203 9.7 16.1 0.00 0.00 0.00 58 1027.6
20260505060413 20 213 14.5 19.3 0.00 0.00 0.00 59 1027.6
20260505055910 20 226 14.5 19.3 0.00 0.00 0.00 59 1027.7
20260505055406 21 229 16.1 20.9 0.00 0.00 0.00 59 1027.6
20260505054902 20 226 8.0 17.7 0.00 0.00 0.00 60 1027.6
20260505054400 20 211 14.5 16.1 0.00 0.00 0.00 59 1027.4
20260505053858 20 225 11.3 17.7 0.00 0.00 0.00 59 1027.5
20260505053355 20 228 14.5 19.3 0.00 0.00 0.00 59 1027.5
20260505052852 20 210 12.9 17.7 0.00 0.00 0.00 59 1027.5
20260505052348 20 215 14.5 19.3 0.00 0.00 0.00 59 1027.6
20260505051846 20 234 12.9 17.7 0.00 0.00 0.00 59 1027.7
20260505051343 20 216 20.9 22.5 0.00 0.00 0.00 59 1027.5
20260505050841 20 223 11.3 17.7 0.00 0.00 0.00 59 1027.7
20260505050339 20 239 9.7 19.3 0.00 0.00 0.00 59 1027.8
20260505041306 21 7 0.0 8.0 0.00 0.00 0.00 51 1028.4
20260505040803 21 328 8.0 9.7 0.00 0.00 0.00 49 1028.5
20260505040301 22 344 6.4 11.3 0.00 0.00 0.00 48 1028.6
20260505035757 21 149 1.6 6.4 0.00 0.00 0.00 51 1028.6
20260505035253 21 45 9.7 12.9 0.00 0.00 0.00 49 1028.7
20260505034751 21 79 3.2 8.0 0.00 0.00 0.00 49 1028.9
20260505034247 21 64 9.7 9.7 0.00 0.00 0.00 49 1029.0
20260505033744 21 353 4.8 6.4 0.00 0.00 0.00 52 1028.9
20260505033242 21 352 6.4 8.0 0.00 0.00 0.00 52 1029.1
20260505032739 21 0 4.8 6.4 0.00 0.00 0.00 51 1029.0
20260505032235 21 344 6.4 9.7 0.00 0.00 0.00 52 1029.1
20260505031733 20 15 8.0 9.7 0.00 0.00 0.00 53 1029.2
20260505031229 20 49 11.3 14.5 0.00 0.00 0.00 52 1029.2
20260505030726 20 337 4.8 8.0 0.00 0.00 0.00 52 1029.2
20260505030222 20 342 11.3 12.9 0.00 0.00 0.00 53 1029.4
20260505025718 20 40 4.8 12.9 0.00 0.00 0.00 53 1029.2
20260505025216 20 56 6.4 14.5 0.00 0.00 0.00 54 1029.3
20260505024714 20 44 4.8 8.0 0.00 0.00 0.00 54 1029.2
20260505024211 20 26 9.7 12.9 0.00 0.00 0.00 55 1029.3
20260505023708 20 98 6.4 12.9 0.00 0.00 0.00 55 1029.2
20260505023206 19 70 4.8 12.9 0.00 0.00 0.00 57 1029.2
20260505022703 19 43 4.8 6.4 0.00 0.00 0.00 57 1029.1
20260505022200 18 80 3.2 8.0 0.00 0.00 0.00 58 1029.2
20260505021656 19 46 8.0 12.9 0.00 0.00 0.00 57 1029.4
20260505021153 19 94 8.0 11.3 0.00 0.00 0.00 58 1029.3
20260505020649 18 22 4.8 11.3 0.00 0.00 0.00 59 1029.2
20260505020145 18 73 4.8 8.0 0.00 0.00 0.00 60 1029.3
20260505015642 18 85 11.3 16.1 0.00 0.00 0.00 58 1029.3
20260505015139 18 70 4.8 9.7 0.00 0.00 0.00 60 1029.4
20260505014636 18 46 3.2 8.0 0.00 0.00 0.00 61 1029.4
20260505014133 18 45 8.0 11.3 0.00 0.00 0.00 62 1029.4
20260505013630 18 100 9.7 11.3 0.00 0.00 0.00 62 1029.4
20260505013127 17 67 4.8 11.3 0.00 0.00 0.00 63 1029.3
20260505012625 17 63 4.8 12.9 0.00 0.00 0.00 64 1029.3
20260505012122 17 63 8.0 9.7 0.00 0.00 0.00 64 1029.3
20260505011618 16 75 6.4 9.7 0.00 0.00 0.00 66 1029.5
20260505011115 16 111 6.4 9.7 0.00 0.00 0.00 67 1029.4
20260505010610 16 91 4.8 9.7 0.00 0.00 0.00 68 1029.4
20260505010107 16 88 8.0 11.3 0.00 0.00 0.00 68 1029.5
20260505005603 16 76 8.0 11.3 0.00 0.00 0.00 68 1029.4
20260505005101 16 79 8.0 9.7 0.00 0.00 0.00 69 1029.4
20260505004558 16 80 6.4 6.4 0.00 0.00 0.00 69 1029.6
20260505004055 15 42 8.0 14.5 0.00 0.00 0.00 70 1029.4
20260505003552 15 64 8.0 12.9 0.00 0.00 0.00 70 1029.1
20260505003049 15 96 9.7 14.5 0.00 0.00 0.00 70 1029.1
20260505002550 15 65 8.0 11.3 0.00 0.00 0.00 70 1029.2
20260505002049 15 74 4.8 9.7 0.00 0.00 0.00 71 1029.2
20260505001545 15 101 6.4 8.0 0.00 0.00 0.00 73 1029.3
20260505001043 15 91 6.4 8.0 0.00 0.00 0.00 74 1029.2
20260505000540 14 96 8.0 8.0 0.00 0.00 0.00 75 1029.0
20260505000038 14 58 4.8 6.4 0.00 0.00 0.00 76 1028.9
20260504235534 13 80 6.4 6.4 0.00 0.00 0.00 77 1028.8
20260504235031 13 79 4.8 9.7 0.00 0.00 0.00 78 1028.7
20260504234528 13 71 4.8 8.0 0.00 0.00 0.00 79 1028.8
20260504234025 13 82 6.4 6.4 0.00 0.00 0.00 80 1028.6
20260504233520 12 61 3.2 6.4 0.00 0.00 0.00 80 1028.5
20260504233017 12 104 4.8 6.4 0.00 0.00 0.00 81 1028.6
20260504232514 12 92 3.2 6.4 0.00 0.00 0.00 82 1028.4
20260504232012 12 79 4.8 6.4 0.00 0.00 0.00 82 1028.4
20260504231508 11 69 4.8 6.4 0.00 0.00 0.00 82 1028.1
20260504231004 11 97 3.2 6.4 0.00 0.00 0.00 83 1028.2
20260504230500 11 103 4.8 6.4 0.00 0.00 0.00 83 1028.1